Weather observations for the past three days for
Vidalia, Vidalia Municipal Airport
Imperial (Metric)
Date Time (edt) Wind (mph) Vis. (mi.) Weather Sky Cond. Temperature (ºF) Relative Humidity Wind Chill (°F) Heat Index (°F) Pressure Precipitation (in)
Air Dwpt 6 hour altimeter (in) sea level (mb) 1 hr 3 hr 6 hr
Max. Min.
17 18:15 E 14 G 18 10.00 Fair CLR 89.6 66.2 46% 92 30.08 0.0
17 17:55 SE 9 G 18 10.00 Fair CLR 89.6 66.2 46% 92 30.08 0.0
17 17:35 E 16 G 20 10.00 Fair CLR 89.6 64.4 43% 91 30.08 0.0
17 17:15 SE 12 G 20 10.00 Fair CLR 91.4 68 46% 96 30.09 0.0
17 16:55 E 15 10.00 Partly Cloudy SCT049 SCT060 91.4 68 46% 96 30.09 0.0
17 16:35 E 16 G 22 10.00 Partly Cloudy SCT060 91.4 68 46% 96 30.1 0.0
17 16:15 SE 13 G 23 10.00 Partly Cloudy SCT040 SCT047 SCT060 93.2 69.8 47% 99 30.1 0.0
17 15:55 E 16 G 23 10.00 Partly Cloudy SCT040 SCT060 SCT070 89.6 69.8 52% 95 30.1 0.0
17 15:35 E 13 G 17 10.00 Partly Cloudy SCT120 91.4 69.8 49% 97 30.11 0.0
17 15:15 E 12 10.00 Mostly Cloudy BKN110 89.6 71.6 55% 96 30.12 0.0
17 14:55 E 13 10.00 Overcast SCT026 SCT050 OVC095 87.8 69.8 55% 93 30.13 0.0
17 14:35 E 16 G 25 10.00 Mostly Cloudy SCT030 SCT048 BKN100 89.6 69.8 52% 95 30.13 0.0
17 14:15 E 9 G 20 10.00 Partly Cloudy SCT048 SCT055 SCT120 93.2 68 44% 98 30.12 0.0
17 13:55 E 12 10.00 Partly Cloudy SCT046 SCT055 SCT100 93.2 69.8 47% 99 30.13 0.0
17 13:35 E 9 10.00 Partly Cloudy SCT044 SCT050 SCT065 95 68 41% 100 30.14 0.0
17 13:15 E 10 G 17 10.00 Mostly Cloudy BKN044 BKN050 BKN075 91.4 69.8 49% 97 30.14 0.0
17 12:55 E 9 G 16 10.00 Mostly Cloudy SCT042 SCT048 BKN055 91.4 69.8 49% 97 30.15 0.0
17 12:35 E 9 10.00 Mostly Cloudy SCT042 SCT050 BKN110 91.4 69.8 49% 97 30.16 0.0
17 12:15 E 9 10.00 Partly Cloudy SCT036 SCT055 SCT065 89.6 71.6 55% 96 30.16 0.0
17 11:55 E 10 10.00 Partly Cloudy SCT034 SCT039 SCT046 89.6 71.6 55% 96 30.16 0.0
17 11:35 E 9 10.00 Partly Cloudy SCT030 SCT043 SCT055 89.6 71.6 55% 96 30.16 0.0
17 11:15 E 7 10.00 Mostly Cloudy SCT028 SCT039 BKN070 87.8 71.6 59% 94 30.17 0.0
17 10:55 E 5 10.00 Overcast SCT026 BKN037 OVC070 86 71.6 62% 92 30.16 0.0
17 10:35 SE 6 10.00 Mostly Cloudy BKN026 BKN034 BKN045 86 71.6 62% 92 30.16 0.0
17 10:15 E 7 10.00 Partly Cloudy SCT021 SCT025 SCT033 87.8 73.4 62% 96 30.16 0.0
17 09:55 E 8 10.00 Mostly Cloudy SCT015 SCT020 BKN031 86 73.4 66% 93 30.16 0.0
17 09:35 E 3 10.00 Overcast BKN013 BKN024 OVC040 82.4 73.4 74% 88 30.16 0.0
17 09:15 E 6 10.00 Overcast BKN013 OVC018 82.4 73.4 74% 88 30.15 0.0
17 08:55 E 6 10.00 Mostly Cloudy SCT011 BKN025 82.4 73.4 74% 88 30.15 0.0
17 08:35 E 8 10.00 Partly Cloudy SCT009 SCT016 80.6 73.4 79% 85 30.15 0.0
17 08:15 E 5 10.00 Partly Cloudy SCT016 78.8 73.4 84% 82 30.14 0.0
17 07:55 E 5 10.00 Partly Cloudy SCT015 78.8 73.4 84% 82 30.14 0.0
17 07:35 E 5 10.00 Fair CLR 77 71.6 83% 78 30.13 0.0
17 07:15 NE 3 10.00 Partly Cloudy SCT016 SCT021 77 71.6 83% 78 30.13 0.0
17 06:55 Calm 10.00 Mostly Cloudy SCT014 SCT022 BKN031 75.2 71.6 89% 75 30.12 0.0
17 06:35 E 3 10.00 Overcast BKN014 BKN018 OVC031 75.2 71.6 89% 75 30.12 0.0
17 06:15 NE 3 10.00 Mostly Cloudy BKN014 73.4 71.6 94% 30.12 0.0
17 05:55 E 5 10.00 Partly Cloudy SCT014 73.4 71.6 94% 30.12 0.0
17 05:35 E 3 10.00 Fair CLR 73.4 69.8 89% 30.12 0.0
17 05:15 E 5 10.00 Partly Cloudy SCT016 SCT023 73.4 69.8 89% 30.12 0.0
17 04:55 E 3 10.00 Mostly Cloudy BKN018 BKN023 73.4 69.8 89% 30.12 0.0
17 04:35 E 3 10.00 Partly Cloudy SCT018 73.4 69.8 89% 30.12 0.0
17 04:15 Calm 10.00 Fair CLR 73.4 69.8 89% 30.11 0.0
17 03:35 Calm 10.00 Fair CLR 73.4 69.8 89% 30.12 0.0
17 03:15 Calm 10.00 Fair CLR 73.4 69.8 89% 30.12 0.0
17 02:55 Calm 10.00 Fair CLR 75.2 69.8 83% 75 30.13 0.0
17 02:35 Calm 10.00 Fair CLR 75.2 69.8 83% 75 30.13 0.0
17 02:15 Calm 10.00 Fair CLR 75.2 69.8 83% 75 30.13 0.0
17 01:55 Calm 10.00 Fair CLR 77 69.8 79% 79 30.13 0.0
17 01:35 Calm 10.00 Fair CLR 77 69.8 79% 79 30.14 0.0
17 01:15 Calm 10.00 Fair CLR 77 71.6 83% 78 30.14 0.0
17 00:55 Calm 10.00 Fair CLR 77 69.8 79% 79 30.14 0.0
17 00:35 Calm 10.00 Fair CLR 78.8 71.6 79% 82 30.14 0.0
17 00:15 Calm 10.00 Fair CLR 78.8 69.8 74% 81 30.14 0.0
16 23:55 Calm 10.00 Fair CLR 78.8 69.8 74% 81 30.14 0.0
16 23:35 Calm 10.00 Fair CLR 78.8 69.8 74% 81 30.13 0.0
16 23:15 Calm 10.00 Fair CLR 80.6 69.8 70% 84 30.13 0.0
16 22:55 SE 3 10.00 Fair CLR 80.6 69.8 70% 84 30.12 0.0
16 22:35 SE 3 10.00 Fair CLR 80.6 69.8 70% 84 30.12 0.0
16 22:15 SE 6 10.00 Fair CLR 82.4 69.8 66% 86 30.11 0.0
16 21:55 SE 6 10.00 Fair CLR 82.4 69.8 66% 86 30.11 0.0
16 21:35 SE 5 10.00 Fair CLR 82.4 68 62% 85 30.1 0.0
16 21:15 SE 6 10.00 Fair CLR 84.2 68 58% 87 30.1 0.0
16 20:55 SE 3 10.00 Fair CLR 86 68 55% 89 30.09 0.0
16 20:35 SE 6 10.00 Fair CLR 86 68 55% 89 30.09 0.0
16 20:15 SE 7 10.00 Fair CLR 87.8 66.2 49% 90 30.08 0.0
16 19:55 SE 7 10.00 Fair CLR 89.6 66.2 46% 92 30.07 0.0
16 19:35 SE 8 G 17 10.00 Fair CLR 89.6 66.2 46% 92 30.07 0.0
16 19:15 SE 12 G 16 10.00 Fair CLR 91.4 66.2 44% 94 30.07 0.0
16 18:55 SE 10 10.00 Fair CLR 91.4 64.4 41% 93 30.07 0.0
16 18:35 SE 13 10.00 Fair CLR 93.2 64.4 39% 95 30.07 0.0
16 18:15 SE 10 10.00 Fair CLR 93.2 64.4 39% 95 30.06 0.0
16 17:55 SE 9 10.00 Partly Cloudy SCT060 95 66.2 39% 98 30.06 0.0
16 17:35 SE 8 10.00 Mostly Cloudy BKN060 93.2 64.4 39% 95 30.05 0.0
16 17:15 E 10 G 17 10.00 Mostly Cloudy BKN065 BKN070 95 64.4 36% 97 30.05 0.0
16 16:55 SE 7 10.00 Partly Cloudy SCT065 96.8 62.6 32% 98 30.05 0.0
16 16:35 SE 10 G 20 10.00 Partly Cloudy SCT065 96.8 62.6 32% 98 30.05 0.0
16 16:15 SE 10 10.00 Partly Cloudy SCT065 96.8 62.6 32% 98 30.06 0.0
16 15:55 SE 10 G 16 10.00 Partly Cloudy SCT065 96.8 64.4 34% 99 30.06 0.0
16 15:35 E 10 G 18 10.00 Partly Cloudy SCT055 96.8 64.4 34% 99 30.06 0.0
16 15:15 SE 9 G 16 10.00 Mostly Cloudy BKN055 BKN070 95 64.4 36% 97 30.07 0.0
16 14:55 E 8 G 18 10.00 Mostly Cloudy BKN055 BKN070 95 64.4 36% 97 30.07 0.0
16 14:35 SE 7 G 21 10.00 Partly Cloudy SCT055 95 64.4 36% 97 30.08 0.0
16 14:15 SE 7 10.00 Partly Cloudy SCT055 96.8 64.4 34% 99 30.09 0.0
16 13:55 E 13 G 20 10.00 Fair CLR 95 64.4 36% 97 30.09 0.0
16 13:35 E 10 10.00 Partly Cloudy SCT050 95 66.2 39% 98 30.09 0.0
16 13:15 S 8 10.00 Fair CLR 93.2 66.2 41% 96 30.11 0.0
16 12:55 E 10 10.00 Fair CLR 91.4 68 46% 96 30.11 0.0
16 12:35 SE 7 10.00 Partly Cloudy SCT039 91.4 68 46% 96 30.11 0.0
16 12:15 E 8 10.00 Partly Cloudy SCT039 91.4 69.8 49% 97 30.12 0.0
16 11:55 SE 6 10.00 Partly Cloudy SCT037 89.6 69.8 52% 95 30.12 0.0
16 11:35 SE 7 10.00 Partly Cloudy SCT033 87.8 69.8 55% 93 30.12 0.0
16 11:15 SE 5 10.00 Partly Cloudy SCT031 87.8 71.6 59% 94 30.13 0.0
16 10:55 Calm 10.00 Partly Cloudy SCT022 SCT027 SCT034 86 71.6 62% 92 30.13 0.0
16 10:35 SE 3 10.00 Mostly Cloudy SCT019 SCT027 BKN032 86 73.4 66% 93 30.12 0.0
16 10:15 S 3 10.00 Mostly Cloudy BKN017 BKN027 84.2 73.4 70% 91 30.12 0.0
16 09:55 S 5 10.00 Mostly Cloudy BKN013 84.2 73.4 70% 91 30.12 0.0
16 09:35 S 5 10.00 Mostly Cloudy BKN011 82.4 73.4 74% 88 30.12 0.0
16 09:15 SE 3 10.00 Partly Cloudy SCT009 80.6 73.4 79% 85 30.11 0.0
16 08:55 Calm 10.00 Partly Cloudy SCT007 80.6 73.4 79% 85 30.1 0.0
16 08:35 Calm 10.00 Partly Cloudy SCT003 78.8 73.4 84% 82 30.1 0.0
16 08:15 SE 3 10.00 Mostly Cloudy BKN003 77 71.6 83% 78 30.09 0.0
16 07:55 SE 3 10.00 Partly Cloudy SCT003 77 71.6 83% 78 30.08 0.0
16 07:35 E 3 10.00 Fair CLR 75.2 71.6 89% 75 30.07 0.0
16 07:15 Calm 10.00 Fair CLR 73.4 69.8 89% 30.07 0.0
16 06:55 Calm 10.00 Fair CLR 73.4 69.8 89% 30.06 0.0
16 06:35 Calm 10.00 Fair CLR 71.6 69.8 94% 30.06 0.0
16 06:15 Calm 10.00 Fair CLR 71.6 69.8 94% 30.05 0.0
16 05:55 Calm 10.00 Fair CLR 73.4 69.8 89% 30.04 0.0
16 05:35 SE 3 10.00 Fair CLR 73.4 69.8 89% 30.04 0.0
16 05:15 Calm 10.00 Fair CLR 73.4 69.8 89% 30.03 0.0
16 04:55 Calm 10.00 Fair CLR 73.4 69.8 89% 30.03 0.0
16 04:35 S 3 10.00 Fair CLR 73.4 69.8 89% 30.03 0.0
16 04:15 Calm 10.00 Fair CLR 73.4 69.8 89% 30.03 0.0
16 03:55 Calm 10.00 Fair CLR 73.4 69.8 89% 30.03 0.0
16 03:35 Calm 10.00 Fair CLR 75.2 69.8 83% 75 30.03 0.0
16 03:15 Calm 10.00 Fair CLR 75.2 68 78% 76 30.03 0.0
16 02:55 Calm 10.00 Fair CLR 75.2 68 78% 76 30.03 0.0
16 02:35 S 3 10.00 Fair CLR 77 68 74% 79 30.03 0.0
16 01:55 S 3 10.00 Fair CLR 77 68 74% 79 30.04 0.0
16 01:35 S 3 10.00 Fair CLR 77 66.2 69% 79 30.03 0.0
16 01:15 S 5 10.00 Fair CLR 78.8 64.4 61% 81 30.03 0.0
16 00:55 S 5 10.00 Fair CLR 78.8 64.4 61% 81 30.03 0.0
16 00:35 SE 3 10.00 Fair CLR 78.8 64.4 61% 81 30.02 0.0
16 00:15 S 3 10.00 Fair CLR 78.8 64.4 61% 81 30.02 0.0
15 23:55 Calm 10.00 Fair CLR 80.6 64.4 58% 82 30.02 0.0
15 23:35 S 3 10.00 Fair CLR 80.6 64.4 58% 82 30.02 0.0
15 23:15 Calm 10.00 Fair CLR 80.6 64.4 58% 82 30.01 0.0
15 22:55 S 5 10.00 Fair CLR 82.4 64.4 55% 84 30.01 0.0
15 22:35 SE 3 10.00 Fair CLR 82.4 64.4 55% 84 30.01 0.0
15 22:15 SE 5 10.00 Fair CLR 84.2 64.4 51% 86 30.01 0.0
15 21:55 S 6 10.00 Fair CLR 86 64.4 49% 87 30 0.0
15 21:35 SE 6 10.00 Fair CLR 86 64.4 49% 87 30 0.0
15 21:15 SE 7 10.00 Fair CLR 87.8 64.4 46% 89 29.99 0.0
15 20:55 SE 9 10.00 Fair CLR 87.8 64.4 46% 89 29.98 0.0
15 20:35 S 3 10.00 Fair CLR 89.6 64.4 43% 91 29.97 0.0
15 20:15 S 5 10.00 Fair CLR 89.6 62.6 41% 90 29.96 0.0
15 19:55 SE 5 10.00 Fair CLR 91.4 60.8 36% 91 29.95 0.0
15 19:35 SE 5 10.00 Fair CLR 93.2 62.6 36% 94 29.95 0.0
15 19:15 SE 5 10.00 Fair CLR 95 62.6 34% 96 29.94 0.0
15 18:55 S 6 10.00 Fair CLR 95 60.8 32% 95 29.94 0.0
15 18:35 S 6 10.00 Fair CLR 96.8 62.6 32% 98 29.95 0.0
15 18:15 Calm 10.00 Fair CLR 96.8 62.6 32% 98 29.95 0.0
15 17:55 S 6 10.00 Fair CLR 96.8 62.6 32% 98 29.95 0.0
15 17:35 S 3 10.00 Fair CLR 96.8 60.8 30% 97 29.95 0.0
15 17:15 S 8 10.00 Partly Cloudy SCT070 96.8 62.6 32% 98 29.96 0.0
15 16:55 S 6 10.00 Partly Cloudy SCT070 96.8 62.6 32% 98 29.96 0.0
15 16:35 S 5 10.00 Fair CLR 96.8 62.6 32% 98 29.96 0.0
15 16:15 S 9 10.00 Fair CLR 96.8 62.6 32% 98 29.96 0.0
15 15:55 SE 7 10.00 Fair CLR 98.6 62.6 31% 100 29.97 0.0
15 15:35 Calm 10.00 Fair CLR 96.8 62.6 32% 98 29.98 0.0
15 15:15 SE 5 10.00 Fair CLR 96.8 62.6 32% 98 29.98 0.0
15 14:55 Calm 10.00 Fair CLR 96.8 62.6 32% 98 29.99 0.0
15 14:35 E 5 10.00 Partly Cloudy SCT070 SCT080 96.8 62.6 32% 98 29.99 0.0
15 14:15 Calm 10.00 Partly Cloudy SCT070 95 62.6 34% 96 29.99 0.0
15 13:55 NW 3 10.00 Partly Cloudy SCT070 96.8 62.6 32% 98 30 0.0
15 13:35 S 7 10.00 Partly Cloudy SCT070 96.8 62.6 32% 98 30 0.0
15 13:15 W 5 10.00 Fair CLR 95 62.6 34% 96 30 0.0
15 12:55 S 3 10.00 Partly Cloudy SCT065 93.2 62.6 36% 94 30.01 0.0
15 12:35 N 3 10.00 Fair CLR 93.2 62.6 36% 94 30.01 0.0
15 12:15 SW 3 10.00 Fair CLR 93.2 62.6 36% 94 30.01 0.0
15 11:55 Calm 10.00 Fair CLR 91.4 64.4 41% 93 30.01 0.0
15 11:35 Calm 10.00 Fair CLR 89.6 64.4 43% 91 30.01 0.0
15 11:15 Calm 10.00 Fair CLR 89.6 64.4 43% 91 30.01 0.0
15 10:55 W 3 10.00 Fair CLR 89.6 64.4 43% 91 30.01 0.0
15 10:35 SW 6 10.00 Fair CLR 87.8 64.4 46% 89 30.01 0.0
15 10:15 SW 6 10.00 Fair CLR 87.8 64.4 46% 89 30.01 0.0
15 09:55 SW 6 10.00 Fair CLR 87.8 64.4 46% 89 30.01 0.0
15 09:35 W 5 10.00 Fair CLR 86 64.4 49% 87 30.01 0.0
15 09:15 SW 5 10.00 Fair CLR 82.4 68 62% 85 30.01 0.0
15 08:55 SW 3 10.00 Fair CLR 82.4 69.8 66% 86 30.01 0.0
15 08:35 Calm 10.00 Fair CLR 80.6 69.8 70% 84 30.01 0.0
15 08:15 Calm 10.00 Fair CLR 78.8 69.8 74% 81 30.01 0.0
15 07:55 Calm 10.00 Fair CLR 77 69.8 79% 79 30 0.0
15 07:35 Calm 10.00 Fair CLR 73.4 68 83% 29.99 0.0
15 07:15 Calm 10.00 Fair CLR 71.6 68 88% 29.98 0.0
15 06:55 Calm 10.00 Fair CLR 71.6 66.2 83% 29.98 0.0
15 06:35 Calm 10.00 Fair CLR 69.8 66.2 88% 29.98 0.0
15 06:15 Calm 10.00 Fair CLR 69.8 64.4 83% 29.97 0.0
15 05:55 Calm 10.00 Fair CLR 69.8 64.4 83% 29.97 0.0
15 05:35 Calm 10.00 Fair CLR 69.8 64.4 83% 29.96 0.0
15 05:15 Calm 10.00 Fair CLR 69.8 64.4 83% 29.95 0.0
15 04:55 Calm 10.00 Fair CLR 71.6 64.4 78% 29.95 0.0
15 04:35 Calm 10.00 Fair CLR 71.6 64.4 78% 29.95 0.0
15 04:15 Calm 10.00 Fair CLR 71.6 64.4 78% 29.95 0.0
15 03:55 Calm 10.00 Fair CLR 71.6 64.4 78% 29.95 0.0
15 03:35 Calm 10.00 Fair CLR 71.6 64.4 78% 29.95 0.0
15 03:15 Calm 10.00 Fair CLR 71.6 64.4 78% 29.96 0.0
15 02:55 Calm 10.00 Fair CLR 71.6 64.4 78% 29.96 0.0
15 02:35 Calm 10.00 Fair CLR 73.4 64.4 74% 29.95 0.0
15 02:15 SW 3 10.00 Fair CLR 73.4 62.6 69% 29.96 0.0
15 01:55 SW 3 10.00 Fair CLR 73.4 64.4 74% 29.96 0.0
15 01:35 SW 3 10.00 Fair CLR 75.2 64.4 69% 77 29.96 0.0
15 01:15 SW 3 10.00 Fair CLR 77 62.6 61% 79 29.96 0.0
15 00:55 SW 5 10.00 Fair CLR 75.2 64.4 69% 77 29.96 0.0
15 00:35 SW 3 10.00 Fair CLR 77 62.6 61% 79 29.96 0.0
15 00:15 S 5 10.00 Fair CLR 77 64.4 65% 79 29.96 0.0
14 23:55 S 5 10.00 Fair CLR 77 64.4 65% 79 29.96 0.0
14 23:35 S 6 10.00 Fair CLR 78.8 64.4 61% 81 29.95 0.0
14 23:15 S 3 10.00 Fair CLR 78.8 64.4 61% 81 29.95 0.0
14 22:55 S 3 10.00 Fair CLR 80.6 64.4 58% 82 29.95 0.0
14 22:35 S 3 10.00 Fair CLR 80.6 64.4 58% 82 29.94 0.0
14 22:15 S 5 10.00 Fair CLR 80.6 64.4 58% 82 29.94 0.0
14 21:55 Calm 10.00 Fair CLR 80.6 66.2 62% 83 29.93 0.0
14 21:35 Calm 10.00 Fair CLR 80.6 68 66% 83 29.93 0.0
14 21:15 Calm 10.00 Fair CLR 82.4 66.2 58% 85 29.93 0.0
14 20:55 Calm 10.00 Fair CLR 82.4 66.2 58% 85 29.92 0.0
14 20:35 Calm 10.00 Fair CLR 84.2 64.4 51% 86 29.92 0.0
14 20:15 Calm 10.00 Fair CLR 87.8 64.4 46% 89 29.91 0.0
14 19:55 Calm 10.00 Fair CLR 89.6 60.8 38% 90 29.91 0.0
14 19:35 E 5 10.00 Fair CLR 91.4 60.8 36% 91 29.91 0.0
14 19:15 NE 3 10.00 Fair CLR 91.4 60.8 36% 91 29.91 0.0
14 18:55 NE 3 10.00 Fair CLR 93.2 59 32% 93 29.91 0.0
14 18:35 E 5 10.00 Fair CLR 93.2 60.8 34% 93 29.91 0.0
Date Time (edt) Wind (mph) Vis. (mi.) Weather Sky Cond. Air Dwpt Max. Min. Relative Humidity Wind Chill (°F) Heat Index (°F) altimeter (in) sea level (mb) 1 hr 3 hr 6 hr
6 hour
Temperature (ºF) Pressure Precipitation (in)